Airfield :
LOGIN :

Register | Disclaimer

   EN    FR    IT 

 










Legend :    VFR   Marginal VFR   IFR   Intensive IFR   Very Intensive IFR
Visi :
Ceiling :
>= 8 km
>= 3000ft
5 to 8 km
1000 to 3000 ft
1500m to 5 km
500 to 1000 ft
800 to 1500m
200 to 500 ft
< 800m
< 200 ft
Symbols :   Thunderstorms  Fog  Heavy snow  Heavy precipitations  Wind > 20 kt
SIGMETs :     Misc.  Thunderstorms  Icing  Turbulence  Mountain Waves  Volcanic Ashes







- Airport Elevation : 306 ft
- IATA code : EMA
- Download approach charts


EGNX - Nottingham East Midlands

CURRENT METAR :
  • 220820Z 23007KT CAVOK 13/05 Q1020

EXPIRED METARs :
  • 220750Z 22007KT CAVOK 12/05 Q1020
  • 220720Z 21007KT CAVOK 11/05 Q1020
  • 220650Z 22008KT CAVOK 10/05 Q1020
  • 220620Z 21008KT 9999 SCT048 10/05 Q1020
  • 220550Z 20008KT CAVOK 09/05 Q1019

TAF TAF EGNX
Valid from the 22 at 06:00 until the 23 at 06:00 UTC


220454Z 2206/2306 VRB04KT 9999 SCT045
BECMG 2208/2211 25010KT
ATIS : +44 1332 852 852 (ext 3201)
No reported NOTAMs for that airfield.



MET'MAP, your aeronautical weather chart ! - Copyright ORBIFLY December 2007 - Disclaimer

ORBIFLY MET'MAP TEAM :

Programming & Development : Alexandra Zaïnal
Concept & Development : Baudouin d'Aumeries
Co-Development & Prog : Marc-Olivier Méhu
Technical & hardware support : Manuel Goepfert

Contact : metmap@orbifly.com




SOURCES & CREDITS :

   NOAA